Location: Newark
(11.0000°N, 122.6717°E)
Time: 19:07:24
(UTC+00:00)

STARLINK 1065 - Pass Details

Date: 17 December 2019
Orbit: 548 x 551 km, 53.0° (Epoch: 17 January)

Event Time Altitude Azimuth Distance (km) Brightness Sun altitude
Exits shadow 21:13:12 14° 315° (NW) 1,631 5.5 -11.7°
Maximum altitude 21:16:48 63° 236° (WSW) 649 3.8 -10.8°
Drops below altitude 10° 21:21:06 10° 155° (SSE) 1,901 7.1 -9.9°
Sets 21:23:23 0° 151° (SSE) 2,800 8.1 -9.3°
